Location: �terpigny
(49.8910°N, 2.9249°E)
Time: 17:03:12
(UTC+00:00)

UWE-3 - Pass Details

Date: 07 July 2022
Orbit: 583 x 677 km, 97.7° (Epoch: 10 August)

Event Time Altitude Azimuth Distance (km) Brightness Sun altitude
Rises 02:37:40 0° 21° (NNE) 2,919 ? -8.9°
Reaches altitude 10° 02:40:01 10° 31° (NNE) 2,023 ? -8.6°
Maximum altitude 02:44:02 33° 96° (E) 1,079 ? -8.2°
Drops below altitude 10° 02:48:06 10° 161° (SSE) 2,060 ? -7.8°
Sets 02:50:31 0° 171° (S) 2,980 ? -7.6°
